Hourly Data Report for October 29, 2019

All times are specified in Local Standard Time (LST). Add 1 hour to adjust for Daylight Saving Time where and when it is observed.

WOODSTOCK NEWBRIDGE
NEW BRUNSWICK
Current Station Operator: ECCC - MSC

46°09'08.000" N
67°32'34.000" W
154.00 m
8105603
71606
EWD

Download Data

Hourly Data (October 2019)
Hourly Data Report for October 29, 2019
TIME Temp Definition
°C
Dew Point Definition
°C
Rel Hum Definition
%
Wind Dir Definition
10's deg

Wind Spd Definition
km/h
Visibility Definition
km
Stn Press Definition
kPa
Hmdx Definition


Wind Chill Definition


Weather Definition


00:00 6.4 5.1 92 13 4   100.97     LegendNANA
01:00 6.5 5.1 91 13 3   101.00     LegendNANA
02:00 6.5 5.4 93 14 3   101.01     LegendNANA
03:00 6.5 5.6 94 13 4   101.01     LegendNANA
04:00 6.3 5.7 96 13 4   101.03     LegendNANA
05:00 6.3 5.9 97 13 5   101.04     LegendNANA
06:00 6.5 6.0 97 12 3   101.04     LegendNANA
07:00 6.5 5.9 96 15 5   101.05     LegendNANA
08:00 6.6 6.1 96 15 5   101.06     LegendNANA
09:00 7.3 6.4 94 15 8   101.09     LegendNANA
10:00 7.7 6.7 93 16 9   101.06     LegendNANA
11:00 7.9 6.6 91 16 9   101.07     LegendNANA
12:00 8.8 7.0 88 15 9   101.00     LegendNANA
13:00 9.5 6.3 81 17 10   100.92     LegendNANA
14:00 9.8 6.2 78 17 7   100.90     LegendNANA
15:00 10.1 6.1 77 16 10   100.82     LegendNANA
16:00 9.8 6.1 78 17 9   100.84     LegendNANA
17:00 9.5 6.2 80 15 9   100.77     LegendNANA
18:00 9.2 6.3 82 18 9   100.81     LegendNANA
19:00 8.9 5.9 81 18 10   100.82     LegendNANA
20:00 8.5 6.0 84 18 9   100.83     LegendNANA
21:00 8.0 6.6 91 15 7   100.83     LegendNANA
22:00 7.7 7.1 96 16 7   100.80     LegendNANA
23:00 7.8 7.2 96 17 7   100.78     LegendNANA

Notes on Data Quality.

Legend

  • E = Estimated
  • M = Missing
  • NA = Not Available
Date modified: